This is the latest recevied weather packets stored in our database for station/object VK6JI-11. If no packets are shown the sender has not sent any weather packets the latest 10 day(s).
| Time | Temp. | Humidity | Pressure | Rain* | Wind** | Luminosity | Snow |
|---|---|---|---|---|---|---|---|
| 1778116743 | 16.67° C | 67% | 1030.8 hPa | 0 mm | - | 392 W/m² | - |
| 1778116623 | 16.67° C | 68% | 1030.8 hPa | 0 mm | - | 387 W/m² | - |
| 1778116502 | 16.11° C | 68% | 1030.9 hPa | 0 mm | - | 382 W/m² | - |
| 1778116382 | 16.11° C | 69% | 1030.8 hPa | 0 mm | - | 376 W/m² | - |
| 1778116262 | 15.56° C | 70% | 1030.8 hPa | 0 mm | - | 371 W/m² | - |
| 1778116140 | 15.56° C | 71% | 1030.8 hPa | 0 mm | - | 364 W/m² | - |
| 1778116019 | 15° C | 72% | 1030.9 hPa | 0 mm | - | 359 W/m² | - |
| 1778115897 | 15° C | 72% | 1030.9 hPa | 0 mm | - | 353 W/m² | - |
| 1778115777 | 15° C | 72% | 1030.8 hPa | 0 mm | - | 346 W/m² | - |
| 1778115657 | 15° C | 72% | 1030.8 hPa | 0 mm | - | 341 W/m² | - |
| 1778115536 | 14.44° C | 73% | 1030.8 hPa | 0 mm | - | 294 W/m² | - |
| 1778115416 | 14.44° C | 73% | 1030.8 hPa | 0 mm | - | 202 W/m² | - |
| 1778115295 | 14.44° C | 73% | 1030.8 hPa | 0 mm | - | 274 W/m² | - |
| 1778115175 | 13.89° C | 74% | 1030.8 hPa | 0 mm | - | 225 W/m² | - |
| 1778115054 | 13.89° C | 74% | 1030.8 hPa | 0 mm | - | 121 W/m² | - |
| 1778114934 | 13.89° C | 75% | 1030.8 hPa | 0 mm | - | 42 W/m² | - |
| 1778114814 | 13.89° C | 75% | 1030.8 hPa | 0 mm | - | 58 W/m² | - |
| 1778114693 | 13.89° C | 75% | 1030.7 hPa | 0 mm | - | 55 W/m² | - |
| 1778114573 | 13.33° C | 75% | 1030.8 hPa | 0 mm | - | 86 W/m² | - |
| 1778114452 | 13.33° C | 75% | 1030.6 hPa | 0 mm | - | 86 W/m² | - |
| 1778114332 | 13.33° C | 76% | 1030.7 hPa | 0 mm | - | 37 W/m² | - |
| 1778114205 | 13.33° C | 76% | 1030.7 hPa | 0 mm | - | 35 W/m² | - |
| 1778114085 | 13.33° C | 77% | 1030.7 hPa | 0 mm | - | 39 W/m² | - |
| 1778113965 | 12.78° C | 77% | 1030.6 hPa | 0 mm | - | 35 W/m² | - |
| 1778113845 | 12.78° C | 77% | 1030.6 hPa | 0 mm | - | 30 W/m² | - |
* Rain latest hour (hover to see other rain measurements)
** Current wind speed in m/s (hover to see current wind gust speed)